Terminal Aerodrome Forecast
Issued by NWS

Home | Current Version | Previous Version | Text Only | Print | Product List | Glossary On
Versions: 1 2 3 4 5 6 7 8 9 10 11 12 13 14 15 16 17 18 19 20 21 22 23 24 25 26 27 28 29 30 31 32 33 34 35 36 37 38 39 40 41 42 43 44 45 46 47 48 49 50
000
FTUS46 KEKA 291200 CCA
TAFACV
TAF COR
KACV 291206Z 2912/3012 00000KT 1/2SM FG VV002
     FM291700 VRB05KT 2SM BR OVC003
     FM291900 30006KT 4SM BR OVC005
     FM292100 32008KT 6SM BR BKN005
     FM300300 33004KT 3SM BR OVC004
     FM300500 VRB03KT 2SM BR OVC002=

USA.gov is the U.S. government's official web portal to all federal, state and local government web resources and services.